Satellite-Ground Cal/Val Site Overpasses Predictions

Prediction of Satellite NPP Overpassing Cal/Val Site: Antarctic Dome C

Ground Cal/Val Site Location: Latitude: -75.10, Longitude: 123.35; Satellite-Ground Site NADIR distance within 100 km.

Table of predicted overpasses for the next 14.0 days since TLE Epoch: 10/13/2018
Interval Starting Time Ending Time Minimum Distance Time Minimum Distance (km)
1 10/15/2018 14:55:21 10/15/2018 14:55:50 10/15/2018 14:55:36 19.08
2 10/16/2018 14:36:40 10/16/2018 14:36:54 10/16/2018 14:36:47 87.94
3 10/17/2018 07:38:12 10/17/2018 07:38:39 10/17/2018 07:38:26 38.20
4 10/18/2018 07:19:25 10/18/2018 07:19:45 10/18/2018 07:19:35 71.83
5 10/20/2018 15:01:40 10/20/2018 15:02:04 10/20/2018 15:01:52 56.28
6 10/21/2018 14:42:50 10/21/2018 14:43:15 10/21/2018 14:43:03 52.93
7 10/22/2018 07:44:31 10/22/2018 07:44:50 10/22/2018 07:44:40 73.65
8 10/23/2018 07:25:38 10/23/2018 07:26:05 10/23/2018 07:25:51 34.34
9 10/25/2018 15:08:03 10/25/2018 15:08:12 10/25/2018 15:08:08 94.21


NCC Satellite Cal/Val Overpasses Prediction Service
